Temperature
16 14 13 12 11 10 9 8 7 7 6 5 5 5 5 4 4 3 3 2 1 1 0 -0 -1 -2 -2 -3 -4 -4 -4 -5 -5 -6 -5 -4 -4 -5 -5 -6 -6 -6 -7
16 15 14 13 12 11 10 9 8 7 7 6 5 5 4 4 3 3 2 2 1 1 0 -1 -1 -2 -3 -3 -4 -5 -5 -5 -6 -7 -8 -7 -7 -6 -6 -6 -6 -7 -7
16 16 15 14 13 12 12 11 10 8 7 6 5 4 4 4 3 3 3 2 1 1 -0 -1 -1 -2 -3 -3 -4 -5 -5 -6 -6 -7 -8 -9 -9 -9 -7 -7 -7 -7 -8
17 17 16 15 15 15 13 12 11 9 8 7 6 5 5 5 4 4 3 2 1 1 -0 -1 -1 -2 -3 -3 -4 -5 -6 -6 -6 -7 -8 -9 -10 -11 -10 -8 -8 -8 -8
18 18 18 17 16 15 14 13 11 10 9 8 7 6 5 5 4 3 3 2 1 1 -0 -1 -1 -2 -3 -4 -4 -5 -6 -6 -7 -7 -8 -9 -9 -10 -11 -11 -9 -9 -8
19 19 18 17 17 16 15 13 12 11 10 9 7 6 5 5 4 3 3 2 1 1 -0 -1 -2 -2 -3 -4 -4 -5 -6 -6 -7 -8 -8 -9 -9 -9 -10 -11 -11 -10 -9
19 19 19 18 18 17 16 15 14 13 11 10 8 7 6 5 4 4 3 2 1 1 0 -1 -1 -2 -3 -4 -4 -5 -6 -6 -7 -7 -8 -8 -9 -9 -10 -11 -11 -11 -10
19 19 19 18 18 17 16 16 15 14 12 11 10 8 7 5 4 4 3 2 2 1 -0 -1 -2 -2 -3 -4 -5 -5 -6 -6 -7 -7 -8 -8 -9 -9 -10 -10 -11 -11 -11
19 19 19 18 18 17 17 16 15 14 13 12 10 9 7 6 5 4 3 2 2 1 -0 -1 -2 -2 -3 -4 -5 -5 -6 -6 -7 -7 -8 -8 -8 -9 -9 -10 -10 -11 -11
19 19 19 18 18 17 16 16 15 14 13 12 11 9 8 6 5 4 3 2 2 1 -0 -1 -2 -2 -3 -4 -5 -5 -6 -6 -7 -7 -8 -8 -8 -9 -9 -9 -10 -10 -11
18 18 18 18 17 17 16 16 15 14 13 12 11 9 8 7 5 4 3 2 1 0 -0 -1 -2 -2 -3 -4 -4 -5 -6 -6 -7 -7 -8 -8 -8 -9 -9 -9 -10 -10 -11
18 18 17 17 17 17 16 16 15 14 14 12 11 9 8 6 5 4 3 2 1 0 -0 -1 -2 -2 -3 -4 -4 -5 -6 -6 -7 -7 -8 -8 -8 -9 -9 -9 -9 -10 -10
16 16 16 17 16 16 16 15 15 14 13 12 11 9 8 6 5 4 3 2 1 0 -1 -1 -2 -2 -3 -4 -4 -5 -5 -6 -7 -7 -8 -8 -8 -9 -9 -9 -9 -9 -10
15 16 16 16 16 16 16 15 15 14 13 12 10 9 8 7 6 4 3 2 1 0 -1 -1 -2 -2 -3 -4 -4 -5 -5 -6 -6 -7 -8 -8 -8 -9 -9 -9 -9 -9 -9
15 16 15 15 15 15 15 15 14 14 13 12 11 10 9 7 5 4 3 2 1 -0 -1 -1 -2 -2 -3 -4 -4 -5 -5 -6 -7 -7 -8 -8 -9 -9 -9 -9 -9 -9 -9
15 15 15 15 15 15 15 14 14 14 13 12 11 10 8 7 5 4 3 1 1 -0 -1 -1 -2 -2 -3 -3 -4 -5 -6 -7 -7 -7 -8 -8 -9 -9 -9 -9 -9 -9 -9
14 14 14 14 14 14 14 14 13 13 12 12 11 10 8 7 5 4 2 1 1 -0 -1 -1 -2 -2 -3 -4 -4 -5 -6 -7 -7 -8 -8 -9 -9 -9 -9 -9 -9 -9 -9
13 13 13 13 13 13 13 13 13 12 12 11 11 10 8 7 5 3 2 1 1 -0 -1 -1 -2 -2 -3 -4 -4 -5 -6 -7 -7 -8 -8 -9 -9 -9 -9 -9 -9 -9 -9
12 12 12 12 12 12 12 12 12 12 11 11 11 10 8 6 5 3 3 1 0 -1 -1 -1 -2 -2 -3 -4 -5 -5 -6 -7 -7 -8 -8 -9 -9 -9 -9 -9 -9 -9 -9
11 11 11 11 11 12 11 11 11 11 11 10 10 8 7 5 4 3 2 1 0 -1 -2 -2 -2 -3 -3 -4 -5 -5 -6 -7 -7 -8 -8 -9 -9 -9 -9 -9 -9 -10 -10
10 10 10 10 10 10 10 10 10 10 10 8 8 7 6 5 4 2 1 0 -1 -1 -2 -2 -2 -3 -3 -4 -5 -6 -7 -7 -8 -8 -8 -9 -9 -9 -9 -9 -10 -10 -10
9 9 9 9 9 9 9 9 9 9 8 7 7 6 5 4 2 1 0 -1 -1 -2 -2 -3 -3 -3 -3 -4 -5 -6 -6 -7 -8 -8 -9 -9 -9 -10 -10 -10 -10 -10 -10
8 8 8 8 9 9 8 8 8 7 7 7 6 5 4 3 2 1 -0 -1 -2 -2 -2 -3 -3 -3 -3 -4 -5 -6 -7 -7 -8 -9 -9 -9 -10 -10 -10 -10 -11 -11 -11
7 7 7 7 8 8 7 7 7 6 6 6 5 4 3 2 0 -1 -1 -2 -2 -2 -2 -3 -3 -3 -4 -4 -5 -6 -7 -7 -8 -9 -9 -9 -10 -10 -10 -10 -10 -11 -11
6 6 6 6 6 6 6 6 6 5 5 4 4 3 1 0 -1 -1 -1 -2 -2 -1 -2 -2 -3 -3 -4 -4 -5 -6 -7 -7 -8 -9 -9 -9 -10 -10 -10 -10 -11 -11 -11
5 5 5 5 5 5 5 5 5 4 4 3 3 1 0 -1 -1 -2 -2 -3 -3 -3 -3 -3 -3 -4 -4 -5 -6 -7 -7 -8 -9 -9 -9 -10 -10 -10 -11 -11 -11 -11 -11
Wind_Speed
16 11 14 14 14 15 17 18 17 14 11 6 6 5 6 6 7 14 16 16 16 15 13 10 9 9 6 5 5 3 5 4 3 4 5 6 7 7 6 9 11 14 17
11 12 14 16 19 20 20 19 20 18 16 12 7 4 4 4 6 12 15 17 16 16 13 13 10 9 6 5 5 4 3 3 2 2 4 5 5 3 7 6 7 9 13
17 14 15 18 19 21 23 21 21 20 18 13 6 4 3 2 4 6 7 15 17 17 16 14 12 11 8 6 6 6 5 4 3 4 3 3 5 8 5 6 7 7 7
14 14 15 17 21 24 20 21 21 20 18 16 14 12 11 10 10 7 8 12 17 17 17 15 14 12 10 7 7 6 6 5 5 4 5 6 5 5 7 6 5 8 9
14 16 18 20 20 18 18 19 18 20 19 19 19 17 14 10 6 6 8 9 11 16 17 16 14 12 10 9 8 6 7 6 6 5 4 6 7 8 8 12 12 10 7
12 14 13 12 13 14 16 17 19 21 19 21 20 20 19 14 10 10 10 9 7 9 14 15 15 14 11 10 10 9 9 8 8 8 7 6 6 6 7 10 13 15 12
9 11 12 13 15 16 18 19 21 22 21 22 22 22 20 18 17 15 13 11 9 8 11 13 12 11 13 13 12 8 9 9 9 9 8 9 10 9 9 11 13 15 14
9 11 12 13 14 16 17 19 22 23 22 23 23 20 18 15 14 15 12 13 11 11 10 13 13 14 14 13 11 8 9 8 10 11 10 9 10 9 10 10 11 14 14
10 10 10 11 12 15 18 21 22 22 22 23 21 20 19 18 16 14 13 10 10 9 11 12 12 12 13 12 10 9 10 9 10 11 11 11 10 10 10 11 11 11 15
10 10 10 10 11 12 13 15 19 22 21 20 20 18 19 19 16 14 15 14 13 11 10 11 11 10 11 11 9 9 10 10 11 10 11 12 10 10 10 11 11 12 13
12 11 9 8 9 9 11 14 17 18 18 20 20 19 18 18 16 16 16 15 12 13 12 12 11 11 11 10 10 11 10 11 12 11 12 14 12 11 10 10 11 12 12
12 11 10 9 8 10 11 14 15 18 19 18 18 19 17 16 17 18 16 14 14 13 13 12 12 12 12 11 11 12 12 12 13 13 12 14 12 12 11 11 13 13 13
13 11 9 9 9 10 11 13 15 17 16 15 17 18 18 18 20 19 16 15 15 14 13 13 13 13 12 11 12 12 12 12 13 13 13 14 13 14 13 13 13 13 14
12 11 11 10 10 10 11 13 15 15 14 15 17 19 21 21 20 18 16 16 15 15 14 14 13 13 12 11 11 11 12 12 13 14 14 14 14 15 15 14 15 14 15
13 12 11 11 10 10 11 12 14 14 15 17 19 22 19 18 17 17 17 16 16 16 14 13 13 12 11 10 11 12 12 13 14 14 14 14 17 20 18 15 13 13 12
14 13 13 12 12 11 11 12 14 14 15 18 21 18 17 17 18 18 17 16 15 14 13 14 13 12 11 17 20 15 12 12 13 13 12 13 16 20 24 26 25 21 15
14 14 14 13 13 12 12 13 13 12 15 18 18 17 17 18 19 18 17 17 16 15 14 14 13 13 14 20 20 21 13 11 11 10 10 11 12 17 12 19 24 21 24
13 15 14 14 13 12 11 10 9 11 14 16 17 17 18 19 17 17 18 17 14 14 14 14 13 12 14 19 20 20 13 9 9 10 10 11 12 13 15 14 13 13 13
15 15 15 15 14 14 11 9 9 10 13 17 18 18 18 18 17 18 18 16 13 13 13 11 12 12 13 18 19 18 8 8 9 10 10 11 11 19 23 15 12 12 11
15 14 14 13 14 14 9 8 11 11 16 18 16 15 16 18 18 18 16 13 12 13 12 11 11 12 11 15 18 17 8 8 9 8 9 15 16 20 22 12 9 11 10
16 15 14 13 13 12 8 10 12 15 16 12 11 13 15 17 16 14 12 12 12 11 11 11 10 10 12 14 17 17 8 8 9 8 7 8 17 20 20 16 8 12 11
14 14 13 15 14 11 8 11 15 15 10 9 11 13 14 14 12 12 12 12 12 11 11 9 9 8 10 13 14 17 16 13 8 8 6 8 17 18 18 14 14 17 11
14 13 13 15 15 11 8 13 16 11 9 9 12 11 12 12 12 13 13 12 11 10 10 9 9 8 7 9 16 16 16 16 9 6 11 14 16 15 10 13 16 12 6
14 12 13 15 16 15 12 13 14 10 9 10 10 9 10 11 11 11 12 12 12 11 11 10 9 8 7 7 7 7 8 11 9 7 9 12 12 10 10 11 9 6 6
11 11 12 14 17 16 15 13 11 9 9 10 9 8 10 10 11 11 11 13 12 13 13 11 9 8 8 10 12 8 7 6 6 4 2 2 4 5 5 5 6 5 6
13 13 13 14 16 16 17 14 10 8 9 9 8 8 8 9 9 9 9 16 15 18 19 16 12 10 11 10 11 12 11 10 8 4 2 3 4 5 6 6 6 6 6
Wind_Direction
235 208 200 198 196 197 199 199 197 192 181 174 178 184 205 203 203 207 207 206 207 208 209 214 221 222 220 230 239 251 271 269 267 290 295 280 262 258 260 267 277 287 293
230 209 199 198 201 202 203 202 202 196 193 193 180 176 173 190 201 204 206 207 207 208 211 212 216 220 221 231 235 227 251 262 270 275 309 317 306 278 278 263 275 283 289
230 216 205 205 205 207 206 205 204 200 197 189 167 148 138 148 182 203 207 209 208 210 212 213 216 219 215 224 230 224 225 248 254 214 233 281 295 312 281 270 279 279 287
228 220 210 209 210 213 207 206 203 202 197 189 189 188 195 202 203 196 198 202 207 211 215 217 218 220 219 221 231 226 219 225 251 242 225 226 240 281 303 296 277 277 285
224 224 218 217 216 210 205 206 204 204 199 197 199 201 209 210 187 184 193 201 209 214 217 218 219 220 222 224 227 230 227 222 235 237 233 241 246 238 261 293 301 297 281
228 231 227 217 215 204 204 203 204 207 202 201 203 206 209 203 192 196 201 206 209 214 218 219 219 222 223 226 229 230 232 233 236 241 236 236 242 247 251 274 291 297 296
237 233 226 217 215 206 204 203 205 210 205 204 207 209 211 206 206 205 206 204 207 212 215 216 216 220 225 229 230 228 234 234 236 240 242 242 245 250 256 269 283 289 293
250 239 232 223 218 211 205 203 207 212 206 207 210 211 210 209 213 210 205 206 210 212 208 211 217 221 225 230 229 230 237 237 239 246 245 248 250 248 250 258 275 288 291
267 254 246 230 222 215 209 206 208 212 209 209 210 210 210 210 211 208 207 208 210 209 209 212 217 223 226 228 227 235 238 239 242 247 248 249 253 250 250 253 255 268 287
282 271 257 243 232 223 216 208 210 213 212 209 210 212 211 212 210 206 207 209 209 208 205 210 215 221 225 227 226 236 241 241 246 248 249 251 254 254 253 253 253 252 263
284 277 268 253 238 225 213 211 213 215 213 211 210 212 211 209 208 210 211 210 208 207 211 213 216 222 226 226 229 236 239 243 250 251 251 254 254 257 257 255 255 255 255
281 277 272 265 247 232 221 218 216 216 216 212 209 212 210 206 208 213 211 207 208 208 211 213 217 223 227 227 229 238 243 243 250 253 253 257 259 256 257 258 257 257 255
291 289 283 270 256 242 230 224 221 221 217 209 210 212 211 208 211 212 209 206 207 208 210 212 218 224 227 229 232 236 242 245 248 251 253 257 257 261 261 260 262 261 261
296 295 291 281 268 251 236 230 229 222 214 210 212 214 214 213 212 209 206 205 205 207 210 214 219 223 227 230 235 238 243 247 251 252 253 255 254 258 262 265 262 263 264
307 302 295 290 280 264 246 235 232 222 212 212 216 219 216 213 210 207 206 204 205 208 209 213 219 223 226 231 234 238 244 248 253 254 253 254 260 263 269 271 269 267 267
311 307 302 296 288 275 259 243 236 224 211 216 221 220 214 210 209 208 205 203 205 206 206 212 217 222 229 241 247 248 242 247 251 257 256 258 267 274 281 285 288 287 283
306 304 300 293 288 279 262 250 241 222 215 221 223 218 213 212 211 207 203 204 204 203 208 213 216 224 232 243 252 258 257 250 250 252 259 269 271 281 279 283 287 288 288
307 305 300 295 292 285 274 259 240 223 221 224 225 220 214 213 208 205 206 206 202 204 208 212 215 223 234 243 252 260 262 257 251 249 253 262 268 273 278 275 273 270 270
296 294 291 291 291 290 284 267 249 232 228 230 228 221 215 213 207 207 207 203 199 203 208 210 213 221 234 243 252 259 255 257 255 256 257 261 263 278 288 287 280 280 276
300 298 299 298 296 295 289 266 257 242 239 237 232 222 214 212 210 209 205 198 196 202 204 212 213 219 229 241 250 257 252 255 261 260 260 272 278 286 293 290 281 284 285
301 303 304 303 299 299 292 271 264 254 251 245 233 222 215 213 211 205 198 191 193 194 200 210 216 219 229 242 249 254 245 248 259 265 262 262 284 293 297 300 286 287 298
308 310 311 309 306 304 290 278 273 270 262 241 231 223 214 209 206 198 194 189 189 193 200 208 220 224 230 239 246 251 254 258 255 262 264 269 289 296 302 306 303 306 314
311 313 311 309 309 305 288 281 284 282 264 242 233 223 211 205 199 194 190 187 189 195 200 205 218 225 221 231 242 250 257 264 264 261 277 287 296 305 309 307 307 311 308
312 313 314 313 312 311 300 283 287 283 261 250 239 220 207 203 199 197 193 191 193 196 199 204 214 219 218 220 229 239 254 259 268 275 282 290 299 303 301 305 308 302 288
306 308 307 306 305 307 304 297 291 280 263 253 240 220 208 202 201 202 201 199 201 198 197 202 201 202 216 225 225 223 227 230 242 257 248 271 293 296 296 296 295 291 293
305 306 305 305 306 308 305 302 294 275 260 257 241 222 209 202 199 200 207 215 209 211 211 208 203 210 218 230 233 238 247 257 264 261 255 271 279 285 290 297 300 299 297
Height
1508 1512 1514 1517 1519 1521 1523 1525 1528 1530 1532 1532 1533 1533 1534 1534 1534 1534 1533 1532 1531 1529 1528 1527 1525 1523 1521 1519 1517 1514 1511 1508 1504 1500 1495 1492 1490 1489 1486 1484 1481 1478 1474
1500 1503 1507 1509 1511 1512 1515 1517 1519 1521 1523 1525 1527 1527 1528 1528 1528 1527 1526 1526 1525 1524 1522 1521 1520 1518 1516 1514 1512 1509 1506 1504 1501 1497 1491 1486 1482 1480 1479 1477 1474 1471 1468
1491 1496 1499 1501 1503 1504 1505 1508 1510 1513 1515 1518 1520 1520 1520 1520 1520 1520 1520 1519 1518 1517 1516 1515 1514 1512 1511 1509 1507 1504 1502 1499 1497 1495 1492 1487 1480 1475 1470 1469 1467 1464 1461
1485 1489 1492 1493 1495 1496 1499 1501 1503 1505 1507 1509 1510 1510 1510 1511 1512 1513 1513 1513 1512 1511 1510 1509 1508 1506 1505 1503 1501 1499 1497 1494 1492 1490 1488 1486 1481 1476 1466 1461 1459 1457 1454
1480 1483 1485 1487 1489 1491 1492 1494 1495 1497 1498 1499 1500 1502 1502 1503 1505 1505 1505 1505 1504 1504 1503 1502 1501 1499 1498 1497 1495 1493 1491 1489 1487 1485 1482 1480 1477 1473 1468 1458 1452 1449 1446
1477 1479 1481 1482 1483 1485 1485 1486 1487 1488 1489 1490 1491 1492 1493 1495 1496 1496 1497 1497 1497 1496 1495 1495 1494 1493 1491 1490 1489 1487 1485 1483 1481 1479 1476 1474 1471 1467 1463 1456 1448 1442 1438
1473 1475 1476 1477 1477 1478 1478 1479 1479 1479 1480 1480 1481 1482 1483 1485 1486 1488 1489 1489 1488 1488 1488 1487 1486 1485 1484 1483 1482 1480 1478 1476 1474 1472 1470 1467 1464 1461 1458 1452 1445 1438 1431
1470 1471 1471 1472 1472 1472 1472 1471 1471 1471 1471 1470 1471 1472 1474 1475 1477 1478 1479 1480 1480 1480 1480 1479 1479 1478 1477 1476 1474 1472 1471 1469 1467 1465 1462 1460 1457 1455 1451 1447 1441 1433 1424
1467 1467 1467 1467 1466 1466 1465 1464 1463 1463 1462 1462 1462 1463 1464 1465 1467 1469 1470 1471 1471 1472 1472 1471 1471 1470 1469 1468 1467 1464 1463 1461 1459 1457 1455 1452 1449 1447 1443 1440 1436 1431 1421
1464 1463 1463 1462 1461 1459 1458 1457 1455 1454 1454 1453 1453 1453 1454 1455 1457 1459 1460 1461 1462 1463 1463 1463 1463 1462 1461 1460 1459 1457 1455 1453 1451 1449 1446 1444 1441 1438 1435 1432 1428 1424 1418
1460 1459 1457 1456 1455 1453 1451 1449 1447 1446 1445 1444 1443 1443 1444 1446 1447 1448 1450 1452 1453 1453 1454 1454 1454 1454 1453 1452 1450 1448 1447 1445 1443 1441 1438 1435 1434 1430 1427 1424 1420 1415 1411
1457 1454 1452 1450 1448 1445 1443 1441 1439 1437 1436 1435 1434 1434 1434 1435 1436 1437 1440 1442 1443 1444 1445 1445 1445 1445 1444 1444 1442 1440 1439 1437 1434 1432 1430 1427 1425 1422 1419 1415 1411 1406 1402
1451 1448 1446 1444 1441 1439 1436 1433 1431 1429 1427 1426 1424 1424 1424 1424 1425 1427 1429 1431 1433 1434 1435 1435 1435 1436 1436 1435 1434 1432 1430 1428 1426 1424 1421 1419 1417 1413 1410 1406 1402 1397 1393
1446 1443 1440 1438 1436 1433 1429 1426 1423 1421 1418 1416 1414 1413 1412 1413 1415 1417 1419 1421 1423 1424 1425 1426 1426 1427 1427 1426 1425 1424 1422 1420 1418 1416 1413 1411 1408 1404 1401 1397 1393 1389 1385
1443 1440 1437 1434 1431 1427 1423 1419 1415 1412 1409 1406 1403 1401 1402 1403 1404 1406 1408 1410 1412 1413 1415 1416 1417 1418 1418 1418 1417 1416 1414 1412 1409 1407 1405 1402 1399 1396 1393 1389 1385 1381 1377
1441 1438 1434 1430 1426 1421 1417 1412 1408 1404 1400 1396 1392 1392 1391 1391 1392 1394 1397 1399 1401 1403 1405 1406 1408 1409 1409 1409 1409 1408 1405 1403 1401 1399 1397 1394 1391 1388 1385 1382 1379 1375 1371
1439 1435 1430 1425 1420 1415 1410 1405 1400 1396 1391 1386 1383 1381 1380 1380 1381 1383 1386 1388 1390 1393 1395 1397 1399 1400 1401 1401 1401 1400 1398 1396 1394 1391 1389 1386 1382 1380 1376 1372 1369 1366 1363
1435 1430 1424 1419 1413 1408 1403 1397 1391 1386 1381 1377 1374 1371 1369 1369 1371 1373 1375 1377 1380 1383 1385 1388 1390 1391 1392 1393 1393 1392 1390 1388 1386 1384 1381 1378 1374 1371 1368 1364 1360 1356 1353
1430 1424 1418 1412 1405 1400 1394 1388 1382 1377 1372 1367 1364 1361 1360 1359 1360 1361 1364 1368 1371 1374 1377 1380 1382 1383 1384 1385 1385 1384 1382 1380 1378 1376 1374 1371 1367 1364 1361 1358 1353 1349 1345
1422 1416 1409 1403 1397 1392 1386 1379 1373 1368 1362 1358 1355 1353 1351 1350 1350 1352 1356 1359 1362 1366 1369 1372 1374 1376 1377 1378 1378 1377 1375 1373 1371 1369 1366 1364 1361 1358 1355 1351 1347 1342 1338
1414 1408 1402 1396 1390 1384 1377 1370 1365 1359 1355 1350 1346 1343 1342 1341 1342 1345 1348 1351 1355 1358 1361 1364 1367 1368 1370 1370 1370 1370 1368 1366 1364 1361 1359 1357 1354 1351 1348 1345 1341 1337 1333
1407 1401 1394 1388 1383 1377 1370 1362 1357 1352 1346 1341 1337 1334 1333 1333 1334 1337 1340 1344 1347 1350 1353 1356 1359 1361 1362 1363 1363 1363 1362 1360 1358 1355 1353 1350 1348 1345 1342 1339 1335 1332 1328
1401 1394 1388 1381 1375 1370 1363 1355 1349 1343 1337 1332 1328 1326 1325 1325 1326 1328 1331 1335 1338 1342 1345 1348 1351 1353 1355 1356 1356 1356 1355 1354 1352 1349 1347 1344 1342 1339 1335 1332 1329 1326 1322
1395 1388 1381 1374 1368 1362 1356 1349 1342 1335 1330 1325 1321 1318 1317 1317 1318 1320 1323 1326 1329 1333 1336 1340 1343 1346 1348 1349 1349 1349 1348 1347 1346 1343 1341 1339 1336 1333 1330 1327 1324 1320 1317
1389 1383 1376 1368 1361 1355 1349 1342 1335 1328 1322 1317 1313 1311 1310 1310 1311 1313 1316 1319 1322 1326 1330 1333 1337 1339 1341 1343 1343 1343 1342 1341 1340 1338 1335 1333 1330 1327 1325 1322 1319 1316 1312
1382 1376 1369 1362 1355 1348 1341 1335 1329 1322 1316 1310 1307 1304 1303 1303 1304 1307 1310 1313 1317 1321 1324 1327 1331 1333 1335 1337 1337 1337 1337 1336 1335 1333 1330 1328 1325 1323 1320 1317 1314 1311 1308